Location: Rio de Janeiro
(22.9068°S, 43.1729°W)
Time: 12:00:47
(UTC-03:00)

Envisat - Pass Details

Date: 05 December 2023
Orbit: 762 x 764 km, 98.3° (Epoch: 03 March)

Event Time Altitude Azimuth Distance (km) Brightness Sun altitude
Exits shadow 04:03:06 14° 276° (W) 2,043 4.7 -12.2°
Maximum altitude 04:03:08 14° 276° (W) 2,043 4.7 -12.2°
Drops below altitude 10° 04:05:43 10° 245° (WSW) 2,312 5.2 -11.7°
Sets 04:09:13 0° 220° (SW) 3,247 6.1 -11.0°
